Location: Newark
(25.6108°S, 54.5803°W)
Time: 17:06:13
(UTC+00:00)

S-56A Canister/Altair - All Passes

Search period start: 21 October 2020 00:00
Search period end: 31 October 2020 00:00
Orbit: 632 x 2500 km, 38.9° (Epoch: 20 October)

Date Brightness Start Highest point End Pass type
(mag) Time Alt. Az. Time Alt. Az. Time Alt. Az.
21 Oct - 00:07:22 10° W 00:17:03 41° SSW 00:23:38 10° SE visible
21 Oct - 02:16:56 10° SW 02:22:54 25° S 02:27:25 10° SE visible
21 Oct - 04:22:53 10° SW 04:28:11 43° SSE 04:32:30 10° E night (unlit)
21 Oct - 06:27:46 10° W 06:31:42 28° NW 06:35:35 10° NNE night (unlit)
21 Oct - 19:20:42 10° NNW 19:32:19 29° NE 19:41:47 10° E daylight
21 Oct - 21:24:36 10° NW 21:38:19 78° NE 21:47:41 10° ESE daylight
21 Oct - 23:33:16 10° W 23:44:01 46° SSW 23:51:13 10° SE visible
22 Oct - 01:43:14 10° WSW 01:49:57 27° S 01:54:55 10° SE visible
22 Oct - 03:49:52 10° SW 03:55:31 39° SSE 03:59:54 10° E night (unlit)
22 Oct - 05:54:50 10° WSW 05:59:14 36° NW 06:03:18 10° NNE night (unlit)
22 Oct - 18:47:48 10° N 18:58:55 26° NE 19:08:22 10° E daylight
22 Oct - 20:50:54 10° NW 21:05:01 71° NE 21:14:59 10° ESE daylight
22 Oct - 22:59:09 10° W 23:10:54 52° SSW 23:18:45 10° SE visible
23 Oct - 01:09:24 10° WSW 01:16:58 29° S 01:22:26 10° SE visible
23 Oct - 03:16:45 10° SW 03:22:47 36° SSE 03:27:18 10° E visible
23 Oct - 05:21:52 10° WSW 05:26:45 46° NW 05:31:00 10° NE night (unlit)
23 Oct - 18:15:06 10° N 18:25:30 23° NE 18:34:42 10° E daylight
23 Oct - 20:17:17 10° NW 20:31:39 65° NE 20:42:11 10° ESE daylight
23 Oct - 22:25:03 10° WNW 22:37:42 58° SSW 22:46:14 10° SE visible
24 Oct - 00:35:25 10° WSW 00:43:56 31° S 00:49:57 10° SE visible
24 Oct - 02:43:29 10° SW 02:49:58 35° SSE 02:54:43 10° E visible
24 Oct - 04:48:52 10° WSW 04:54:16 60° NW 04:58:40 10° NE night (unlit)
24 Oct - 17:42:40 10° N 17:52:05 20° NE 18:00:44 10° E daylight
24 Oct - 19:43:46 10° NW 19:58:13 59° NE 20:09:18 10° ESE daylight
24 Oct - 21:50:58 10° WNW 22:04:26 64° SSW 22:13:39 10° SE visible
25 Oct - 00:01:20 10° WSW 00:10:50 34° SSW 00:17:26 10° SE visible
25 Oct - 02:10:04 10° SW 02:17:06 34° S 02:22:08 10° ESE visible
25 Oct - 04:15:48 10° WSW 04:21:45 76° NW 04:26:18 10° NE night (unlit)
25 Oct - 17:10:35 10° NNE 17:18:40 17° NE 17:26:21 10° E daylight
25 Oct - 19:10:22 10° NNW 19:24:45 53° NE 19:36:17 10° ESE daylight
25 Oct - 21:16:56 10° WNW 21:31:05 70° SSW 21:41:02 10° SE daylight
25 Oct - 23:27:09 10° WSW 23:37:39 37° SSW 23:44:56 10° SE visible
26 Oct - 01:36:30 10° SW 01:44:10 34° S 01:49:35 10° ESE visible
26 Oct - 03:42:40 10° WSW 03:49:11 88° SSE 03:53:56 10° ENE visible
26 Oct - 05:50:49 10° WNW 05:52:06 11° NW 05:53:19 10° NNW night (unlit)
26 Oct - 16:39:07 10° NNE 16:45:16 14° NE 16:51:17 10° ENE daylight
26 Oct - 18:37:05 10° NNW 18:51:15 48° NE 19:03:09 10° ESE daylight
26 Oct - 20:42:58 10° WNW 20:57:41 77° SSW 21:08:19 10° SE daylight
26 Oct - 22:52:56 10° W 23:04:24 41° SSW 23:12:21 10° SE visible
27 Oct - 01:02:47 10° WSW 01:11:10 34° S 01:17:00 10° ESE visible
27 Oct - 03:09:27 10° WSW 03:16:33 75° SSE 03:21:31 10° ENE visible
27 Oct - 05:16:35 10° W 05:19:36 15° NW 05:22:20 10° N night (unlit)
27 Oct - 16:09:22 10° NE 16:11:53 11° NE 16:14:24 10° ENE daylight
27 Oct - 18:03:58 10° NNW 18:17:45 43° NE 18:29:53 10° ESE daylight
27 Oct - 20:09:07 10° WNW 20:24:12 84° SSW 20:35:32 10° ESE daylight
27 Oct - 22:18:41 10° W 22:31:04 44° SSW 22:39:44 10° SE visible
28 Oct - 00:28:56 10° WSW 00:38:05 35° S 00:44:24 10° ESE visible
28 Oct - 02:36:08 10° SW 02:43:51 66° SSE 02:49:05 10° ENE visible
28 Oct - 04:42:55 10° W 04:47:09 21° NW 04:50:42 10° N night (unlit)
28 Oct - 17:30:59 10° NNW 17:44:14 39° NE 17:56:26 10° ESE daylight
28 Oct - 19:35:22 10° NW 19:50:39 90° NNE 20:02:39 10° ESE daylight
28 Oct - 21:44:27 10° W 21:57:40 48° SSW 22:07:05 10° SE daylight
28 Oct - 23:54:57 10° WSW 00:04:55 36° S 00:11:47 10° ESE visible
29 Oct - 02:02:43 10° SW 02:11:03 59° SSE 02:16:37 10° ENE visible
29 Oct - 04:09:24 10° WSW 04:14:41 28° NW 04:18:50 10° NNE night (unlit)
29 Oct - 16:58:10 10° NNW 17:10:44 34° NE 17:22:49 10° ESE daylight
29 Oct - 19:01:44 10° NW 19:17:04 83° NE 19:29:41 10° ESE daylight
29 Oct - 21:10:15 10° W 21:24:11 52° SSW 21:34:21 10° SE daylight
29 Oct - 23:20:53 10° WSW 23:31:40 37° S 23:39:08 10° ESE visible
30 Oct - 01:29:10 10° SW 01:38:10 54° SSE 01:44:07 10° E visible
30 Oct - 03:35:56 10° WSW 03:42:12 37° NW 03:46:49 10° NNE visible
30 Oct - 16:25:33 10° N 16:37:17 30° NE 16:48:59 10° E daylight
30 Oct - 18:28:14 10° NW 18:43:26 77° NE 18:56:37 10° ESE daylight
30 Oct - 20:36:07 10° W 20:50:38 57° SSW 21:01:35 10° SE daylight
30 Oct - 22:46:43 10° WSW 22:58:19 39° S 23:06:27 10° ESE visible
